Weather History for Reidsville, NC

Change the Weather History Date:

Saturday, January 5, 2013

  Actual Average (KGSO) Record (KGSO)
Temperature  
Mean Temperature 34 °F 39 °F  
Max Temperature 49 °F 48 °F 71 °F (1950)
Min Temperature 20 °F 29 °F 3 °F (1918)
Degree Days  
Heating Degree Days 30 26  
Month to date heating degree days 130  
Since 1 July heating degree days 1544  
Cooling Degree Days 0 0  
Month to date cooling degree days 0  
Year to date cooling degree days 0  
Moisture  
Dew Point 24 °F    
Average Humidity 64    
Maximum Humidity 93    
Minimum Humidity 35    
Precipitation  
Precipitation 0.00 in 0.10 in 1.13 in (1949)
Month to date precipitation 0.48  
Year to date precipitation 0.48  
Snow  
Snow 0.00 in 0.10 in 1.80 in (1960)
Month to date snowfall 0.4  
Since 1 July snowfall 1.3  
Snow Depth -    
Sea Level Pressure  
Sea Level Pressure 30.30 in    
Wind  
Wind Speed 1 mph (SW)    
Max Wind Speed 5 mph    
Max Gust Speed -    
Visibility 10 miles    
Events Rain    
T = Trace of Precipitation, MM = Missing Value Source: NWS Daily Summary

Daily Weather History Graph

Daily Weather History Graph

Search for Another Location

Airport:

Trip Planner

Search our weather history database for the weather conditions in past years. The results will help you decide how hot, cold, wet, or windy it might be!

Date:

Astronomy

Jan. 05, 2013 Rise Set
Actual Time 7:31 AM EST 5:18 PM EST
Civil Twilight 7:03 AM EST 5:47 PM EST
Nautical Twilight 6:31 AM EST 6:19 PM EST
Astronomical Twilight 5:59 AM EST 6:50 PM EST
Moon 12:42 AM EST (1/5) 12:02 PM EST (1/5)
Length of Visible Light 10h 43m
Length of Day
9h 46m
Last Quarter, 44% of the Moon is Illuminated
Jan 5
Last Quarter
Jan 11
New
Jan 18
First Quarter
Jan 26
Full
Feb 3
Last Quarter

Hourly Weather History & Observations

Time (EST) Temp. Windchill Dew Point Humidity Pressure Visibility Wind Dir Wind Speed Gust Speed Precip Events Conditions
12:15 AM 32.0 °F 28.7 °F 21.2 °F 64% 30.28 in 10.0 mi West 3.5 mph - N/A   Clear
12:35 AM 30.9 °F - 20.8 °F 66% 30.29 in 10.0 mi Calm Calm - N/A   Clear
12:55 AM 29.7 °F - 20.7 °F 69% 30.29 in 10.0 mi Calm Calm - N/A   Clear
1:15 AM 29.8 °F - 21.2 °F 70% 30.30 in 10.0 mi Calm Calm - N/A   Clear
1:35 AM 27.7 °F 23.8 °F 21.2 °F 77% 30.30 in 10.0 mi WSW 3.5 mph - N/A   Clear
2:15 AM 25.0 °F 19.3 °F 21.0 °F 85% 30.30 in 10.0 mi WNW 4.6 mph - N/A   Clear
2:35 AM 28.0 °F 22.8 °F 21.2 °F 76% 30.31 in 10.0 mi SW 4.6 mph - N/A   Clear
2:55 AM 27.9 °F 24.0 °F 20.8 °F 75% 30.31 in 10.0 mi WSW 3.5 mph - N/A   Clear
3:15 AM 26.6 °F - 20.8 °F 79% 30.31 in 10.0 mi Calm Calm - N/A   Clear
3:35 AM 27.3 °F 23.4 °F 21.4 °F 78% 30.31 in 10.0 mi West 3.5 mph - N/A   Clear
3:55 AM 27.9 °F 22.6 °F 21.4 °F 77% 30.32 in 10.0 mi West 4.6 mph - N/A   Clear
4:15 AM 27.3 °F - 21.2 °F 78% 30.32 in 10.0 mi Calm Calm - N/A   Clear
4:35 AM 26.4 °F - 20.7 °F 79% 30.31 in 10.0 mi Calm Calm - N/A   Clear
4:55 AM 23.9 °F - 19.8 °F 84% 30.31 in 10.0 mi Calm Calm - N/A   Clear
5:15 AM 24.4 °F - 20.3 °F 84% 30.31 in 10.0 mi Calm Calm - N/A   Clear
5:35 AM 22.3 °F - 19.2 °F 88% 30.31 in 10.0 mi Calm Calm - N/A   Clear
5:55 AM 22.3 °F - 19.6 °F 89% 30.31 in 10.0 mi Calm Calm - N/A   Clear
6:15 AM 20.8 °F - 18.7 °F 91% 30.32 in 10.0 mi Calm Calm - N/A   Clear
6:35 AM 22.8 °F - 19.6 °F 87% 30.32 in 10.0 mi Calm Calm - N/A   Clear
6:55 AM 20.8 °F - 18.7 °F 91% 30.33 in 10.0 mi Calm Calm - N/A   Clear
7:15 AM 21.4 °F - 19.6 °F 93% 30.33 in 10.0 mi Calm Calm - N/A   Clear
7:35 AM 21.4 °F - 19.4 °F 92% 30.34 in 10.0 mi Calm Calm - N/A   Clear
7:55 AM 21.9 °F - 20.3 °F 93% 30.35 in 10.0 mi Calm Calm - N/A   Clear
8:15 AM 23.0 °F - 20.8 °F 91% 30.35 in 10.0 mi Calm Calm - N/A   Clear
8:35 AM 25.5 °F - 21.9 °F 86% 30.36 in 10.0 mi Calm Calm - N/A   Clear
8:55 AM 29.8 °F - 24.3 °F 80% 30.37 in 10.0 mi Calm Calm - N/A   Clear
9:15 AM 32.2 °F - 24.8 °F 74% 30.37 in 10.0 mi Calm Calm - N/A   Clear
9:35 AM 33.8 °F - 24.1 °F 68% 30.39 in 10.0 mi Calm Calm - N/A   Clear
9:55 AM 35.6 °F - 25.3 °F 66% 30.39 in 10.0 mi Calm Calm - N/A   Clear
10:15 AM 36.7 °F - 22.8 °F 57% 30.39 in 10.0 mi Calm Calm - N/A   Clear
10:55 AM 39.4 °F - 23.5 °F 53% 30.38 in 10.0 mi Calm Calm - N/A   Clear
11:15 AM 41.2 °F - 24.1 °F 51% 30.38 in 10.0 mi Calm Calm - N/A   Clear
11:55 AM 42.8 °F - 23.5 °F 47% 30.36 in 10.0 mi Calm Calm - N/A   Clear
12:15 PM 44.1 °F - 23.2 °F 44% 30.34 in 10.0 mi Calm Calm - N/A   Clear
12:35 PM 44.8 °F - 23.5 °F 43% 30.33 in 10.0 mi Calm Calm - N/A   Clear
12:55 PM 45.7 °F 44.4 °F 23.7 °F 42% 30.33 in 10.0 mi South 3.5 mph - N/A   Clear
1:15 PM 45.3 °F - 23.2 °F 42% 30.31 in 10.0 mi Calm Calm - N/A   Clear
1:35 PM 46.0 °F - 22.3 °F 39% 30.30 in 10.0 mi Calm Calm - N/A   Clear
1:55 PM 47.1 °F - 23.2 °F 39% 30.28 in 10.0 mi Calm Calm - N/A   Clear
2:15 PM 48.2 °F - 22.3 °F 36% 30.28 in 10.0 mi Calm Calm - N/A   Clear
2:35 PM 47.7 °F - 21.4 °F 35% 30.28 in 10.0 mi Calm Calm - N/A   Clear
2:55 PM 48.2 °F - 21.9 °F 36% 30.28 in 10.0 mi Calm Calm - N/A   Clear
3:15 PM 49.1 °F - 22.6 °F 35% 30.28 in 10.0 mi Calm Calm - N/A   Clear
3:35 PM 48.7 °F - 23.0 °F 36% 30.28 in 10.0 mi Calm Calm - N/A   Clear
3:55 PM 48.7 °F - 21.9 °F 35% 30.28 in 10.0 mi Calm Calm - N/A   Clear
4:15 PM 48.7 °F - 22.1 °F 35% 30.28 in 10.0 mi Calm Calm - N/A   Clear
4:35 PM 46.9 °F - 25.5 °F 43% 30.28 in 10.0 mi Calm Calm - N/A   Clear
4:55 PM 43.0 °F - 28.6 °F 57% 30.27 in 10.0 mi Calm Calm - N/A   Clear
5:15 PM 41.0 °F - 27.5 °F 59% 30.26 in 10.0 mi Calm Calm - N/A   Clear
5:35 PM 38.1 °F - 28.4 °F 68% 30.27 in 10.0 mi Calm Calm - N/A   Clear
5:55 PM 37.0 °F - 27.9 °F 69% 30.27 in 10.0 mi Calm Calm - N/A   Clear
6:15 PM 37.4 °F - 27.7 °F 68% 30.27 in 10.0 mi Calm Calm - N/A   Clear
6:35 PM 39.0 °F - 27.3 °F 63% 30.28 in 10.0 mi Calm Calm - N/A   Clear
6:55 PM 38.7 °F - 28.9 °F 68% 30.28 in 10.0 mi Calm Calm - N/A   Clear
7:15 PM 41.7 °F - 27.1 °F 56% 30.28 in 10.0 mi Calm Calm - N/A   Clear
7:35 PM 43.3 °F 41.7 °F 25.7 °F 50% 30.27 in 10.0 mi South 3.5 mph - N/A   Clear
7:55 PM 42.8 °F 41.1 °F 26.4 °F 52% 30.26 in 10.0 mi South 3.5 mph - N/A   Clear
8:15 PM 41.5 °F - 27.5 °F 57% 30.27 in 10.0 mi Calm Calm - N/A   Clear
8:55 PM 41.2 °F - 27.9 °F 59% 30.26 in 10.0 mi Calm Calm - N/A   Mostly Cloudy
9:15 PM 42.8 °F 41.1 °F 27.0 °F 54% 30.27 in 10.0 mi SW 3.5 mph - N/A Rain Light Rain
9:35 PM 42.8 °F - 29.1 °F 58% 30.26 in 10.0 mi Calm Calm - N/A Rain Light Rain
9:55 PM 41.9 °F - 30.6 °F 64% 30.26 in 10.0 mi Calm Calm - N/A   Mostly Cloudy
10:15 PM 41.4 °F - 32.0 °F 69% 30.26 in 10.0 mi Calm Calm - N/A   Overcast
10:35 PM 41.9 °F - 30.2 °F 63% 30.27 in 10.0 mi Calm Calm - N/A   Overcast
10:55 PM 42.1 °F 40.2 °F 29.5 °F 61% 30.27 in 10.0 mi SW 3.5 mph - N/A   Light Drizzle
11:15 PM 42.3 °F - 29.1 °F 60% 30.25 in 10.0 mi Calm Calm - N/A   Mostly Cloudy
11:35 PM 41.9 °F - 29.5 °F 61% 30.24 in 10.0 mi Calm Calm - N/A   Scattered Clouds
11:55 PM 41.9 °F - 29.3 °F 61% 30.22 in 10.0 mi Calm Calm - N/A   Mostly Cloudy